Time,TemperatureF,DewpointF,PressureIn,WindDirection,WindDirectionDegrees,WindSpeedMPH,WindSpeedGustMPH,Humidity,HourlyPrecipIn,Conditions,Clouds,dailyrainin,SoftwareType,DateUTC
2013-04-11 00:03:00,50.0,48.0,29.79,North,355,1.0,3.0,94,0.00,,,0.64,,2013-04-11 04:03:00,
2013-04-11 00:13:00,50.0,48.0,29.76,NNE,16,3.0,7.0,94,0.01,,,0.65,,2013-04-11 04:13:00,
2013-04-11 00:23:00,50.0,48.0,29.76,NNE,16,3.0,7.0,94,0.01,,,0.65,,2013-04-11 04:23:00,
2013-04-11 00:33:00,50.0,48.0,29.77,NNE,25,2.0,8.0,93,0.01,,,0.65,,2013-04-11 04:33:00,
2013-04-11 00:43:00,50.0,48.0,29.77,NNE,25,2.0,8.0,93,0.01,,,0.65,,2013-04-11 04:43:00,
2013-04-11 00:53:00,49.0,47.0,29.79,NNW,348,2.0,5.0,93,0.01,,,0.65,,2013-04-11 04:53:00,
2013-04-11 01:02:00,49.0,47.0,29.78,North,5,1.0,3.0,94,0.02,,,0.66,,2013-04-11 05:02:00,
2013-04-11 01:13:00,49.0,47.0,29.78,North,5,1.0,3.0,94,0.02,,,0.66,,2013-04-11 05:13:00,
2013-04-11 01:23:00,49.0,47.0,29.77,NNW,346,1.0,4.0,94,0.01,,,0.66,,2013-04-11 05:23:00,
2013-04-11 01:32:00,49.0,47.0,29.78,NNW,342,0.0,3.0,94,0.01,,,0.66,,2013-04-11 05:32:00,
2013-04-11 01:42:00,49.0,47.0,29.78,NNW,342,0.0,3.0,94,0.01,,,0.66,,2013-04-11 05:42:00,
2013-04-11 01:52:00,49.0,47.0,29.78,NNW,346,1.0,3.0,94,0.01,,,0.66,,2013-04-11 05:52:00,
2013-04-11 02:02:00,49.0,47.0,29.76,NW,322,2.0,6.0,94,0.00,,,0.66,,2013-04-11 06:02:00,
2013-04-11 02:12:00,49.0,47.0,29.76,NW,322,2.0,6.0,94,0.00,,,0.66,,2013-04-11 06:12:00,
2013-04-11 02:22:00,49.0,47.0,29.75,North,355,2.0,4.0,94,0.00,,,0.66,,2013-04-11 06:22:00,
2013-04-11 02:32:00,49.0,47.0,29.74,NNW,336,1.0,4.0,94,0.00,,,0.66,,2013-04-11 06:32:00,
2013-04-11 02:42:00,49.0,47.0,29.74,NNW,336,1.0,4.0,94,0.00,,,0.66,,2013-04-11 06:42:00,
2013-04-11 02:53:00,49.0,47.0,29.74,North,355,1.0,4.0,94,0.00,,,0.66,,2013-04-11 06:53:00,
2013-04-11 03:02:00,49.0,47.0,29.74,NNW,329,3.0,5.0,94,0.00,,,0.66,,2013-04-11 07:02:00,
2013-04-11 03:12:00,49.0,47.0,29.74,NNW,329,3.0,5.0,94,0.00,,,0.66,,2013-04-11 07:12:00,
2013-04-11 03:22:00,48.0,46.0,29.74,NW,325,3.0,6.0,94,0.01,,,0.65,,2013-04-11 07:22:00,
2013-04-11 03:32:00,48.0,46.0,29.74,NNW,333,3.0,7.0,94,0.01,,,0.65,,2013-04-11 07:32:00,
2013-04-11 03:43:00,48.0,46.0,29.74,NNW,333,3.0,7.0,94,0.01,,,0.65,,2013-04-11 07:43:00,
2013-04-11 03:52:00,48.0,46.0,29.75,NW,318,1.0,6.0,94,0.01,,,0.65,,2013-04-11 07:52:00,
2013-04-11 04:03:00,48.0,46.0,29.75,NNW,348,1.0,7.0,94,0.01,,,0.65,,2013-04-11 08:03:00,
2013-04-11 04:12:00,48.0,46.0,29.75,NNW,348,1.0,7.0,94,0.01,,,0.65,,2013-04-11 08:12:00,
2013-04-11 04:22:00,48.0,46.0,29.76,NNW,338,3.0,7.0,93,0.00,,,0.51,,2013-04-11 08:22:00,
2013-04-11 04:32:00,47.0,45.0,29.74,NNE,22,3.0,7.0,93,0.00,,,0.51,,2013-04-11 08:32:00,
2013-04-11 04:42:00,47.0,45.0,29.74,NNE,22,3.0,7.0,93,0.00,,,0.51,,2013-04-11 08:42:00,
2013-04-11 04:52:00,47.0,45.0,29.75,North,5,3.0,8.0,93,0.00,,,0.51,,2013-04-11 08:52:00,
2013-04-11 05:02:00,47.0,45.0,29.75,NNE,26,2.0,6.0,93,0.00,,,0.51,,2013-04-11 09:02:00,
2013-04-11 05:12:00,47.0,45.0,29.75,NNE,26,2.0,6.0,93,0.00,,,0.51,,2013-04-11 09:12:00,
2013-04-11 05:22:00,47.0,45.0,29.76,WNW,293,3.0,8.0,93,0.00,,,0.50,,2013-04-11 09:22:00,
2013-04-11 05:33:00,47.0,45.0,29.77,North,355,3.0,6.0,93,0.00,,,0.50,,2013-04-11 09:33:00,
2013-04-11 05:43:00,47.0,45.0,29.77,North,355,3.0,6.0,93,0.00,,,0.50,,2013-04-11 09:43:00,
2013-04-11 05:53:00,47.0,45.0,29.79,NNW,340,2.0,8.0,93,0.00,,,0.50,,2013-04-11 09:53:00,
2013-04-11 06:02:00,47.0,45.0,29.79,NNW,331,2.0,5.0,93,0.00,,,0.50,,2013-04-11 10:02:00,
2013-04-11 06:13:00,46.0,44.0,29.80,NNW,344,2.0,8.0,92,0.00,,,0.50,,2013-04-11 10:13:00,
2013-04-11 06:23:00,46.0,44.0,29.80,NNW,344,2.0,8.0,92,0.00,,,0.50,,2013-04-11 10:23:00,
2013-04-11 06:32:00,46.0,44.0,29.81,NNW,341,2.0,7.0,92,0.00,,,0.50,,2013-04-11 10:32:00,
2013-04-11 06:42:00,46.0,44.0,29.81,NNW,341,2.0,7.0,92,0.00,,,0.50,,2013-04-11 10:42:00,
2013-04-11 06:52:00,46.0,44.0,29.82,North,355,3.0,5.0,92,0.00,,,0.50,,2013-04-11 10:52:00,
2013-04-11 07:03:00,46.0,44.0,29.82,North,355,3.0,5.0,92,0.00,,,0.50,,2013-04-11 11:03:00,
2013-04-11 07:12:00,46.0,44.0,29.82,NNE,14,1.0,5.0,92,0.00,,,0.50,,2013-04-11 11:12:00,
2013-04-11 07:23:00,46.0,44.0,29.83,North,355,0.0,6.0,91,0.00,,,0.50,,2013-04-11 11:23:00,
2013-04-11 07:32:00,46.0,44.0,29.83,North,5,1.0,5.0,91,0.00,,,0.50,,2013-04-11 11:32:00,
2013-04-11 07:43:00,46.0,44.0,29.83,North,5,1.0,5.0,91,0.00,,,0.50,,2013-04-11 11:43:00,
2013-04-11 07:53:00,46.0,43.0,29.85,North,5,2.0,6.0,90,0.00,,,0.50,,2013-04-11 11:53:00,
2013-04-11 08:02:00,46.0,44.0,29.85,North,355,1.0,4.0,91,0.00,,,0.50,,2013-04-11 12:02:00,
2013-04-11 08:13:00,46.0,44.0,29.85,North,355,1.0,4.0,91,0.00,,,0.50,,2013-04-11 12:13:00,
2013-04-11 08:23:00,46.0,43.0,29.85,North,5,1.0,4.0,90,0.00,,,0.50,,2013-04-11 12:23:00,
2013-04-11 08:32:00,47.0,44.0,29.86,NNW,340,2.0,5.0,89,0.00,,,0.50,,2013-04-11 12:32:00,
2013-04-11 08:43:00,47.0,44.0,29.86,NNW,340,2.0,5.0,89,0.00,,,0.50,,2013-04-11 12:43:00,
2013-04-11 08:52:00,47.0,43.0,29.85,NNW,333,3.0,7.0,87,0.00,,,0.50,,2013-04-11 12:52:00,
2013-04-11 09:02:00,48.0,43.0,29.85,North,360,4.0,10.0,84,0.00,,,0.50,,2013-04-11 13:02:00,
2013-04-11 09:13:00,49.0,44.0,29.86,NNE,17,3.0,9.0,83,0.00,,,0.50,,2013-04-11 13:13:00,
2013-04-11 09:23:00,49.0,44.0,29.86,NNE,17,3.0,9.0,83,0.00,,,0.50,,2013-04-11 13:23:00,
2013-04-11 09:32:00,48.0,41.0,29.87,NNW,341,4.0,14.0,77,0.00,,,0.50,,2013-04-11 13:32:00,
2013-04-11 09:43:00,48.0,41.0,29.87,NNW,341,4.0,14.0,77,0.00,,,0.50,,2013-04-11 13:43:00,
2013-04-11 09:54:00,48.0,41.0,29.88,NW,307,5.0,12.0,76,0.00,,,0.50,,2013-04-11 13:54:00,
2013-04-11 10:03:00,48.0,42.0,29.89,NNW,344,1.0,9.0,79,0.00,,,0.50,,2013-04-11 14:03:00,
2013-04-11 10:12:00,48.0,42.0,29.89,NNW,344,1.0,9.0,79,0.00,,,0.50,,2013-04-11 14:12:00,
2013-04-11 10:22:00,48.0,41.0,29.90,North,355,2.0,7.0,77,0.00,,,0.50,,2013-04-11 14:22:00,
2013-04-11 10:33:00,48.0,42.0,29.88,North,355,2.0,7.0,79,0.00,,,0.50,,2013-04-11 14:33:00,
2013-04-11 10:42:00,48.0,42.0,29.88,North,355,2.0,7.0,79,0.00,,,0.50,,2013-04-11 14:42:00,
2013-04-11 10:53:00,49.0,42.0,29.89,NNE,22,3.0,8.0,78,0.00,,,0.50,,2013-04-11 14:53:00,
2013-04-11 11:02:00,49.0,41.0,29.90,NW,323,4.0,9.0,74,0.00,,,0.50,,2013-04-11 15:02:00,
2013-04-11 11:12:00,49.0,41.0,29.90,NW,323,4.0,9.0,74,0.00,,,0.50,,2013-04-11 15:12:00,
2013-04-11 11:22:00,49.0,42.0,29.91,North,5,1.0,6.0,77,0.00,,,0.50,,2013-04-11 15:22:00,
2013-04-11 11:32:00,50.0,43.0,29.91,NNW,328,1.0,7.0,76,0.00,,,0.50,,2013-04-11 15:32:00,
2013-04-11 11:43:00,50.0,43.0,29.91,NNW,328,1.0,7.0,76,0.00,,,0.50,,2013-04-11 15:43:00,
2013-04-11 11:53:00,51.0,43.0,29.92,North,360,2.0,5.0,73,0.00,,,0.50,,2013-04-11 15:53:00,
2013-04-11 12:02:00,52.0,41.0,29.92,NNE,22,3.0,6.0,67,0.00,,,0.50,,2013-04-11 16:02:00,
2013-04-11 12:13:00,52.0,41.0,29.92,NNE,22,3.0,6.0,67,0.00,,,0.50,,2013-04-11 16:13:00,
2013-04-11 12:23:00,52.0,41.0,29.93,North,5,5.0,9.0,65,0.00,,,0.50,,2013-04-11 16:23:00,
2013-04-11 12:32:00,53.0,41.0,29.93,WNW,293,2.0,8.0,64,0.00,,,0.50,,2013-04-11 16:32:00,
2013-04-11 12:42:00,53.0,41.0,29.93,WNW,293,2.0,8.0,64,0.00,,,0.50,,2013-04-11 16:42:00,
2013-04-11 12:53:00,54.0,43.0,29.92,NW,317,1.0,9.0,66,0.00,,,0.50,,2013-04-11 16:53:00,
2013-04-11 13:02:00,54.0,41.0,29.91,North,5,3.0,7.0,61,0.00,,,0.50,,2013-04-11 17:02:00,
2013-04-11 13:13:00,54.0,41.0,29.91,North,5,3.0,7.0,61,0.00,,,0.50,,2013-04-11 17:13:00,
2013-04-11 13:23:00,54.0,39.0,29.93,NNW,334,4.0,11.0,56,0.00,,,0.50,,2013-04-11 17:23:00,
2013-04-11 13:33:00,54.0,39.0,29.93,NNW,334,4.0,11.0,56,0.00,,,0.50,,2013-04-11 17:33:00,
2013-04-11 13:43:00,54.0,39.0,29.93,NNW,334,4.0,11.0,56,0.00,,,0.50,,2013-04-11 17:43:00,
2013-04-11 13:53:00,53.0,36.0,29.93,WNW,286,3.0,10.0,53,0.00,,,0.50,,2013-04-11 17:53:00,
2013-04-11 14:03:00,53.0,35.0,29.93,North,10,5.0,9.0,50,0.00,,,0.50,,2013-04-11 18:03:00,
2013-04-11 14:13:00,53.0,35.0,29.93,North,10,5.0,9.0,50,0.00,,,0.50,,2013-04-11 18:13:00,
2013-04-11 14:23:00,52.0,35.0,29.93,NNW,342,1.0,11.0,52,0.00,,,0.50,,2013-04-11 18:23:00,
2013-04-11 14:33:00,52.0,33.0,29.93,North,9,3.0,9.0,48,0.00,,,0.50,,2013-04-11 18:33:00,
2013-04-11 14:43:00,52.0,33.0,29.93,North,9,3.0,9.0,48,0.00,,,0.50,,2013-04-11 18:43:00,
2013-04-11 14:53:00,51.0,32.0,29.94,North,9,3.0,10.0,48,0.00,,,0.50,,2013-04-11 18:53:00,
2013-04-11 15:03:00,51.0,31.0,29.94,NNE,17,5.0,10.0,46,0.00,,,0.50,,2013-04-11 19:03:00,
2013-04-11 15:14:00,51.0,31.0,29.94,NNE,17,5.0,10.0,46,0.00,,,0.50,,2013-04-11 19:14:00,
2013-04-11 15:22:00,51.0,31.0,29.94,NNW,348,3.0,7.0,46,0.00,,,0.50,,2013-04-11 19:22:00,
2013-04-11 15:32:00,51.0,30.0,29.93,North,360,3.0,10.0,44,0.00,,,0.50,,2013-04-11 19:32:00,
2013-04-11 15:43:00,51.0,30.0,29.93,North,360,3.0,10.0,44,0.00,,,0.50,,2013-04-11 19:43:00,
2013-04-11 15:53:00,50.0,28.0,29.92,North,360,5.0,11.0,42,0.00,,,0.50,,2013-04-11 19:53:00,
2013-04-11 16:03:00,50.0,28.0,29.92,NNW,348,4.0,9.0,42,0.00,,,0.50,,2013-04-11 20:03:00,
2013-04-11 16:13:00,50.0,28.0,29.92,NNW,348,4.0,9.0,42,0.00,,,0.50,,2013-04-11 20:13:00,
2013-04-11 16:22:00,50.0,28.0,29.92,NNE,18,4.0,6.0,43,0.00,,,0.50,,2013-04-11 20:22:00,
2013-04-11 16:33:00,50.0,28.0,29.93,North,360,4.0,8.0,43,0.00,,,0.50,,2013-04-11 20:33:00,
2013-04-11 16:43:00,50.0,28.0,29.93,North,360,4.0,8.0,43,0.00,,,0.50,,2013-04-11 20:43:00,
2013-04-11 16:53:00,50.0,29.0,29.93,NNW,345,2.0,8.0,44,0.00,,,0.50,,2013-04-11 20:53:00,
2013-04-11 17:03:00,49.0,30.0,29.94,NW,325,2.0,9.0,47,0.00,,,0.50,,2013-04-11 21:03:00,
2013-04-11 17:12:00,49.0,30.0,29.94,NW,325,2.0,9.0,47,0.00,,,0.50,,2013-04-11 21:12:00,
2013-04-11 17:23:00,49.0,29.0,29.94,NNW,341,2.0,10.0,46,0.00,,,0.50,,2013-04-11 21:23:00,
2013-04-11 17:33:00,48.0,31.0,29.95,North,360,1.0,6.0,52,0.00,,,0.50,,2013-04-11 21:33:00,
2013-04-11 17:43:00,48.0,31.0,29.95,North,360,1.0,6.0,52,0.00,,,0.50,,2013-04-11 21:43:00,
2013-04-11 17:54:00,48.0,30.0,29.96,NNW,337,2.0,8.0,50,0.00,,,0.50,,2013-04-11 21:54:00,
2013-04-11 18:03:00,48.0,28.0,29.97,NW,316,5.0,9.0,46,0.00,,,0.50,,2013-04-11 22:03:00,
2013-04-11 18:13:00,48.0,28.0,29.97,NW,316,5.0,9.0,46,0.00,,,0.50,,2013-04-11 22:13:00,
2013-04-11 18:23:00,47.0,28.0,29.97,North,5,3.0,12.0,47,0.00,,,0.50,,2013-04-11 22:23:00,
2013-04-11 18:33:00,46.0,28.0,29.98,North,349,3.0,12.0,50,0.00,,,0.50,,2013-04-11 22:33:00,
2013-04-11 18:44:00,46.0,28.0,29.98,North,349,3.0,12.0,50,0.00,,,0.50,,2013-04-11 22:44:00,
2013-04-11 18:53:00,45.0,27.0,29.98,NW,322,3.0,8.0,49,0.00,,,0.50,,2013-04-11 22:53:00,
2013-04-11 19:03:00,45.0,27.0,29.98,NE,38,3.0,10.0,50,0.00,,,0.50,,2013-04-11 23:03:00,
2013-04-11 19:13:00,45.0,27.0,29.98,NE,38,3.0,10.0,50,0.00,,,0.50,,2013-04-11 23:13:00,
2013-04-11 19:23:00,44.0,28.0,29.98,North,5,3.0,9.0,52,0.00,,,0.50,,2013-04-11 23:23:00,
2013-04-11 19:33:00,44.0,28.0,29.98,WSW,248,3.0,8.0,54,0.00,,,0.50,,2013-04-11 23:33:00,
2013-04-11 19:43:00,44.0,28.0,29.98,WSW,248,3.0,8.0,54,0.00,,,0.50,,2013-04-11 23:43:00,
2013-04-11 19:53:00,44.0,30.0,29.99,North,355,2.0,6.0,57,0.00,,,0.50,,2013-04-11 23:53:00,
2013-04-11 20:02:00,44.0,31.0,29.99,North,355,0.0,5.0,60,0.00,,,0.50,,2013-04-12 00:02:00,
2013-04-11 20:12:00,44.0,31.0,29.99,North,355,0.0,5.0,60,0.00,,,0.50,,2013-04-12 00:12:00,
2013-04-11 20:22:00,43.0,30.0,29.99,North,11,2.0,8.0,61,0.00,,,0.24,,2013-04-12 00:22:00,
2013-04-11 20:32:00,43.0,31.0,29.99,North,360,1.0,6.0,63,0.00,,,0.24,,2013-04-12 00:32:00,
2013-04-11 20:42:00,43.0,31.0,29.99,North,360,1.0,6.0,63,0.00,,,0.24,,2013-04-12 00:42:00,
2013-04-11 20:52:00,43.0,31.0,29.99,North,360,1.0,6.0,63,0.00,,,0.24,,2013-04-12 00:52:00,
2013-04-11 21:02:00,42.0,31.0,30.01,North,355,1.0,6.0,65,0.00,,,0.24,,2013-04-12 01:02:00,
2013-04-11 21:12:00,42.0,31.0,30.01,North,355,1.0,6.0,65,0.00,,,0.24,,2013-04-12 01:12:00,
2013-04-11 21:22:00,42.0,31.0,30.00,North,355,2.0,6.0,65,0.00,,,0.03,,2013-04-12 01:22:00,
2013-04-11 21:32:00,42.0,32.0,30.01,NNE,24,0.0,2.0,67,0.00,,,0.03,,2013-04-12 01:32:00,
2013-04-11 21:42:00,42.0,32.0,30.01,NNE,24,0.0,2.0,67,0.00,,,0.03,,2013-04-12 01:42:00,
2013-04-11 21:52:00,42.0,32.0,30.01,NNE,24,0.0,2.0,67,0.00,,,0.03,,2013-04-12 01:52:00,
2013-04-11 22:03:00,42.0,31.0,30.02,West,277,0.0,3.0,66,0.00,,,0.03,,2013-04-12 02:03:00,
2013-04-11 22:12:00,42.0,31.0,30.02,West,277,0.0,3.0,66,0.00,,,0.03,,2013-04-12 02:12:00,
2013-04-11 22:22:00,42.0,32.0,30.02,NNW,346,0.0,2.0,67,0.00,,,0.03,,2013-04-12 02:22:00,
2013-04-11 22:32:00,42.0,33.0,30.02,North,5,0.0,2.0,71,0.00,,,0.03,,2013-04-12 02:32:00,
2013-04-11 22:42:00,42.0,33.0,30.02,North,5,0.0,2.0,71,0.00,,,0.03,,2013-04-12 02:42:00,
2013-04-11 22:52:00,42.0,33.0,30.03,North,5,0.0,0.0,71,0.00,,,0.03,,2013-04-12 02:52:00,
2013-04-11 23:02:00,42.0,34.0,30.03,North,5,0.0,0.0,73,0.00,,,0.03,,2013-04-12 03:02:00,
2013-04-11 23:12:00,42.0,34.0,30.03,North,5,0.0,0.0,73,0.00,,,0.03,,2013-04-12 03:12:00,
2013-04-11 23:22:00,41.0,33.0,30.04,North,5,0.0,0.0,72,0.00,,,0.03,,2013-04-12 03:22:00,
2013-04-11 23:33:00,41.0,33.0,30.03,North,5,0.0,0.0,74,0.00,,,0.03,,2013-04-12 03:33:00,
2013-04-11 23:43:00,41.0,33.0,30.03,North,5,0.0,0.0,74,0.00,,,0.03,,2013-04-12 03:43:00,
2013-04-11 23:52:00,41.0,34.0,30.03,North,5,0.0,0.0,75,0.00,,,0.03,,2013-04-12 03:52:00,